Location: PACMO
(41.3967°N, 90.3760°W)
Time: 19:04:23
(UTC-05:00)

NOAA 19 - Visible Passes

Search period start: 30 May 2016 00:00
Search period end: 09 June 2016 00:00
Orbit: 843 x 861 km, 99.0° (Epoch: 30 May)

Date Brightness Start Highest point End Pass type
(mag) Time Alt. Az. Time Alt. Az. Time Alt. Az.
30 May 7.3 02:51:28 10° NE 02:55:24 20° E 02:59:19 10° SE visible
30 May 5.5 04:31:00 10° N 04:36:27 57° WNW 04:41:50 10° SSW visible
31 May 7.5 02:40:44 10° NE 02:43:54 15° E 02:47:02 10° SE visible
31 May 5.3 04:19:34 10° N 04:25:07 71° WNW 04:30:36 10° SSW visible
01 Jun 7.7 02:30:27 10° ENE 02:32:21 12° E 02:34:16 10° ESE visible
01 Jun 5.2 04:08:09 10° NNE 04:13:46 88° WNW 04:19:12 10° SSW visible
02 Jun 5.4 03:56:48 10° NNE 04:02:23 74° ESE 04:07:42 11° S visible
03 Jun 5.7 03:45:30 10° NNE 03:51:00 59° ESE 03:56:12 11° S visible
04 Jun 6.0 03:34:14 10° NNE 03:39:35 47° E 03:44:41 11° S visible
05 Jun 6.4 03:23:02 10° NNE 03:28:09 37° E 03:33:11 10° SSE visible
06 Jun 6.8 03:11:53 10° NE 03:16:41 29° E 03:21:26 10° SSE visible
06 Jun 6.0 04:52:20 10° N 04:57:25 38° WNW 05:02:28 10° SW visible
07 Jun 7.1 03:00:51 10° NE 03:05:13 23° E 03:09:32 10° SE visible
07 Jun 5.7 04:40:49 10° N 04:46:07 47° WNW 04:51:22 10° SW visible
08 Jun 7.4 02:49:56 10° NE 02:53:43 18° E 02:57:28 10° SE visible
08 Jun 5.4 04:29:20 10° N 04:34:48 59° WNW 04:40:12 10° SSW visible
